Weather History for Huntsville, TX

Change the Weather History Date:

Monday, January 21, 2013

  Actual Average (KCXO) Record (KCXO)
Temperature  
Mean Temperature 56 °F -  
Max Temperature 70 °F 60 °F 77 °F (2003)
Min Temperature 42 °F 39 °F 25 °F (2009)
Degree Days  
Heating Degree Days 9    
Growing Degree Days 6 (Base 50)    
Moisture  
Dew Point 46 °F    
Average Humidity 76    
Maximum Humidity 96    
Minimum Humidity 36    
Precipitation  
Precipitation 0.00 in - - ()
Sea Level Pressure  
Sea Level Pressure 30.18 in    
Wind  
Wind Speed 3 mph (SW)    
Max Wind Speed 9 mph    
Max Gust Speed -    
Visibility 8 miles    
Events      
Averages and records for this station are not official NWS values.
T = Trace of Precipitation, MM = Missing Value Source: NWS Daily Summary

Daily Weather History Graph

Daily Weather History Graph

Search for Another Location

Airport:

Trip Planner

Search our weather history database for the weather conditions in past years. The results will help you decide how hot, cold, wet, or windy it might be!

Date:

Astronomy

Jan. 21, 2013 Rise Set
Actual Time 7:18 AM CST 5:48 PM CST
Civil Twilight 6:53 AM CST 6:14 PM CST
Nautical Twilight 6:23 AM CST 6:43 PM CST
Astronomical Twilight 5:55 AM CST 7:12 PM CST
Moon 1:30 PM CST (1/21) 2:47 AM CST (1/21)
Length of Visible Light 11h 21m
Length of Day
10h 29m
Waxing Gibbous, 75% of the Moon is Illuminated
Jan 21
Waxing Gibbous
Jan 26
Full
Feb 3
Last Quarter
Feb 10
New
Feb 17
First Quarter

Hourly Weather History & Observations

Time (CST) Temp. Windchill Dew Point Humidity Pressure Visibility Wind Dir Wind Speed Gust Speed Precip Events Conditions
12:53 AM 51.1 °F - 46.9 °F 86% 30.15 in 10.0 mi South 5.8 mph - N/A   Clear
1:53 AM 52.0 °F - 46.9 °F 83% 30.15 in 10.0 mi South 5.8 mph - N/A   Clear
2:53 AM 50.0 °F - 46.0 °F 86% 30.15 in 10.0 mi South 4.6 mph - N/A   Clear
3:53 AM 48.0 °F - 45.0 °F 89% 30.15 in 10.0 mi Calm Calm - N/A   Clear
4:53 AM 46.0 °F - 44.1 °F 93% 30.15 in 8.0 mi Calm Calm - N/A   Clear
5:53 AM 44.1 °F - 42.1 °F 93% 30.17 in 5.0 mi Calm Calm - N/A   Clear
6:53 AM 44.1 °F - 41.0 °F 89% 30.17 in 4.0 mi Calm Calm - N/A   Clear
7:13 AM 42.8 °F - 41.0 °F 93% 30.18 in 2.0 mi Calm Calm - N/A   Clear
7:22 AM 42.8 °F - 41.0 °F 93% 30.18 in 3.0 mi Calm Calm - N/A   Clear
7:30 AM 44.6 °F - 41.0 °F 87% 30.18 in 2.0 mi Calm Calm - N/A   Clear
7:51 AM 44.6 °F 42.2 °F 42.8 °F 93% 30.19 in 6.0 mi SSW 4.6 mph - N/A   Clear
7:53 AM 44.1 °F 42.5 °F 43.0 °F 96% 30.19 in 5.0 mi SSW 3.5 mph - N/A   Clear
8:53 AM 52.0 °F - 48.0 °F 86% 30.21 in 8.0 mi Calm Calm - N/A   Clear
9:53 AM 57.0 °F - 52.0 °F 83% 30.23 in 10.0 mi SW 4.6 mph - N/A   Clear
10:53 AM 61.0 °F - 53.1 °F 75% 30.24 in 10.0 mi West 8.1 mph - N/A   Clear
11:53 AM 64.9 °F - 52.0 °F 63% 30.22 in 10.0 mi Variable 4.6 mph - 0.00 in   Clear
12:53 PM 66.9 °F - 50.0 °F 54% 30.19 in 10.0 mi SW 6.9 mph - N/A   Clear
1:53 PM 68.0 °F - 48.9 °F 50% 30.17 in 10.0 mi Variable 6.9 mph - N/A   Clear
2:53 PM 70.0 °F - 48.0 °F 46% 30.16 in 10.0 mi West 9.2 mph - N/A   Partly Cloudy
3:53 PM 69.1 °F - 45.0 °F 42% 30.16 in 10.0 mi West 6.9 mph - N/A   Partly Cloudy
4:53 PM 69.1 °F - 41.0 °F 36% 30.17 in 10.0 mi NW 4.6 mph - N/A   Clear
5:53 PM 63.0 °F - 45.0 °F 52% 30.17 in 10.0 mi Calm Calm - N/A   Clear
6:53 PM 59.0 °F - 46.0 °F 62% 30.18 in 10.0 mi NNW 3.5 mph - N/A   Clear
7:53 PM 55.9 °F - 46.9 °F 72% 30.19 in 10.0 mi Calm Calm - N/A   Clear
8:53 PM 53.1 °F - 46.0 °F 77% 30.20 in 10.0 mi Calm Calm - N/A   Clear
9:53 PM 50.0 °F - 45.0 °F 83% 30.21 in 10.0 mi Calm Calm - N/A   Clear
10:53 PM 50.0 °F - 44.1 °F 80% 30.21 in 10.0 mi Calm Calm - N/A   Clear
11:53 PM 48.0 °F - 43.0 °F 83% 30.22 in 10.0 mi Calm Calm - N/A   Clear